RH
12 14 13 12 10 9 14 20 24 28 37 50 61 69 83 96 89 65 38 32 48 57 56 58 60 59 59 52 46 45 42 41 38 31 23 15 9 8 10 11 12 12 12 10 10 9 8 7 6 5 4 4 5 7 10 13 19 36 61 80 91 97 99 100 99 96 97 101 99 96 96 93 91 94
13 14 14 12 10 10 14 20 23 28 37 47 59 69 79 92 100 94 65 38 46 61 60 64 69 66 68 65 55 48 44 42 41 36 30 23 15 10 9 10 11 12 12 11 10 9 9 8 7 6 5 4 4 5 7 10 14 27 49 71 86 96 101 100 100 98 97 100 99 96 97 96 92 90
14 15 15 12 11 10 13 19 23 27 35 46 57 66 75 87 96 100 83 50 46 65 66 64 72 72 72 73 68 61 54 48 43 39 34 28 22 15 9 8 10 11 12 11 10 10 9 8 7 6 5 5 3 3 5 8 10 18 34 58 78 93 100 100 100 100 96 97 100 99 98 100 97 90
14 15 15 13 11 11 12 18 23 26 33 44 56 63 69 83 94 98 89 62 47 62 71 66 69 73 71 70 71 68 62 57 51 44 37 31 25 19 12 9 8 10 11 12 11 10 9 8 8 7 6 5 4 3 3 5 8 11 22 43 67 86 97 99 100 100 97 96 100 101 99 99 101 93
15 16 16 13 11 10 11 16 22 26 33 42 53 61 67 78 92 96 88 69 51 56 74 79 74 74 72 66 68 69 63 60 57 50 42 35 27 21 14 10 8 8 10 11 11 10 9 9 8 7 7 6 5 4 3 4 6 8 14 29 52 76 92 98 100 100 99 98 100 101 100 99 101 99
15 16 16 14 12 10 10 15 22 25 31 41 50 58 65 75 89 97 90 76 66 64 77 85 77 73 73 67 68 72 67 62 58 53 47 41 33 24 17 12 9 8 9 10 11 11 10 9 8 7 7 6 5 5 4 3 4 6 10 18 38 65 86 95 100 101 100 100 100 98 100 100 99 100
15 17 17 14 12 11 10 13 21 25 29 40 49 54 63 73 85 96 94 87 85 80 76 77 74 72 74 70 70 72 69 66 62 56 52 48 41 32 23 15 10 8 8 9 10 11 10 9 9 8 7 6 6 5 4 3 3 5 8 12 26 53 77 90 98 102 100 100 100 97 98 100 99 101
15 18 17 14 12 11 11 12 18 24 29 38 47 53 61 71 81 91 94 94 96 87 72 71 77 80 78 73 72 73 69 67 65 60 56 53 48 42 32 21 13 10 9 8 8 10 10 9 8 8 8 7 6 6 5 4 3 4 7 9 18 40 65 82 93 100 101 101 101 98 98 99 100 102
16 18 16 14 14 12 11 12 16 22 29 36 45 52 59 68 78 85 89 93 95 86 77 78 83 86 83 76 76 81 76 68 66 63 60 57 53 48 42 32 20 12 9 8 8 9 10 10 9 8 8 7 7 6 5 5 4 4 6 8 13 28 50 70 84 95 99 100 100 99 99 99 100 100
15 18 17 14 14 13 11 12 15 21 28 35 43 52 58 66 75 78 83 91 91 83 84 91 89 87 86 79 78 84 83 73 67 63 60 58 56 52 46 40 31 20 11 7 8 8 9 10 9 8 8 7 7 6 6 5 4 4 6 8 11 21 38 57 73 86 93 95 97 100 100 100 100 100
15 16 17 16 14 14 12 11 14 20 28 36 44 51 58 64 71 75 82 91 89 82 89 101 98 92 89 85 81 84 85 79 74 70 60 53 54 54 49 44 37 29 18 9 7 7 8 9 10 9 8 8 7 6 6 6 5 4 5 8 11 17 31 46 60 75 86 90 94 99 101 100 99 100
14 16 17 16 14 14 12 10 12 19 28 37 44 51 57 64 70 76 84 91 88 85 93 102 101 96 92 90 86 84 85 82 80 80 69 53 50 52 51 48 44 36 25 15 8 7 7 8 9 9 8 7 7 7 6 5 5 4 5 8 11 16 27 40 50 62 76 85 91 96 100 100 97 98
14 17 17 16 15 14 12 11 12 17 26 36 43 50 57 64 71 77 86 93 91 91 98 102 100 96 93 94 93 89 90 91 86 83 74 61 55 54 49 46 48 44 34 23 13 8 7 8 8 9 8 7 7 7 7 6 5 5 4 7 12 16 25 36 43 50 62 76 86 92 97 98 96 97
13 15 17 16 15 14 13 12 12 16 25 34 41 48 55 61 71 80 89 95 94 94 99 102 100 97 95 99 100 96 97 99 91 83 79 73 71 70 56 42 41 45 41 30 18 10 7 7 8 8 8 8 7 6 6 6 5 5 5 6 11 17 24 33 38 41 49 63 77 87 93 94 95 98
12 14 17 16 15 14 13 12 12 15 24 33 38 45 51 56 68 82 92 95 96 97 100 102 102 99 98 101 103 100 100 100 94 91 93 91 89 86 70 47 37 42 44 35 21 12 8 7 7 8 9 8 7 7 6 6 6 5 5 5 9 18 27 34 37 36 40 53 66 78 86 89 92 96
12 13 16 16 15 14 13 11 11 13 22 31 37 43 48 52 64 82 95 99 98 96 96 97 101 102 99 99 101 101 100 100 100 100 101 101 97 89 76 58 45 47 51 40 22 11 8 7 7 8 9 8 7 7 6 6 6 5 5 5 7 15 27 38 41 38 38 46 57 68 77 83 87 90
11 13 15 16 16 15 13 12 10 11 19 29 35 42 47 51 60 77 92 100 99 95 92 89 92 98 96 90 92 98 99 99 101 100 100 102 99 89 78 67 57 56 58 45 25 12 7 6 7 7 8 9 7 7 6 6 6 5 4 5 6 11 22 37 47 47 43 43 50 59 67 75 81 84
11 12 14 15 15 15 14 12 10 10 17 26 35 43 47 49 57 70 84 93 93 89 87 83 83 90 91 86 88 98 102 100 100 101 101 101 99 91 82 74 65 63 65 52 29 13 7 6 7 7 8 8 7 6 6 6 6 6 5 4 5 8 15 28 42 51 51 48 47 51 60 68 74 78
11 11 12 14 15 16 15 13 10 9 14 24 34 43 46 46 53 65 76 84 84 82 85 86 84 85 88 88 92 98 101 101 100 100 98 97 96 91 86 82 73 69 72 60 30 12 8 7 6 7 7 8 7 7 6 5 5 6 5 4 4 6 11 19 32 45 52 55 53 50 55 62 68 72
11 11 12 13 14 16 16 14 11 9 12 21 32 41 44 43 51 62 70 79 85 86 91 96 93 90 92 95 97 98 101 102 101 100 98 96 91 83 82 88 84 76 70 51 22 9 9 7 6 6 7 7 7 6 6 6 5 5 5 5 4 5 7 12 21 33 44 55 58 55 55 58 63 69
11 11 12 12 12 15 16 15 12 9 10 17 28 38 42 42 49 59 65 74 82 87 95 100 99 98 99 100 99 98 99 101 100 101 99 94 88 84 82 84 86 84 73 46 18 9 10 7 5 6 7 7 7 6 5 5 5 4 4 5 4 4 6 9 15 23 34 47 58 63 64 61 62 67
11 11 12 12 12 14 15 16 14 10 8 13 22 32 39 42 49 56 60 66 72 82 95 102 101 100 101 100 100 97 97 101 101 97 93 90 94 97 95 88 82 80 74 49 20 10 10 7 6 7 7 7 6 6 6 5 5 5 4 4 5 3 4 7 11 16 25 38 53 65 72 72 69 69
11 11 12 12 12 12 14 15 15 11 8 10 16 24 33 41 48 53 55 56 58 68 86 98 100 101 100 100 100 98 97 101 101 94 89 91 94 94 98 102 89 69 59 43 21 15 15 8 6 7 7 8 6 5 5 5 4 5 4 3 5 4 4 6 8 12 19 30 46 62 72 80 80 74
11 12 12 12 12 12 12 14 15 13 10 9 12 19 28 37 46 51 53 53 53 60 74 87 95 100 101 100 100 99 99 101 100 98 94 93 95 94 98 105 92 68 56 43 33 40 42 29 21 17 9 8 8 5 5 6 5 5 5 4 4 4 3 4 6 9 14 23 37 54 67 78 85 79
11 12 12 13 12 12 12 13 15 16 13 10 10 15 24 33 42 48 52 54 56 60 69 79 88 96 100 101 100 99 101 100 100 101 98 93 96 100 101 101 95 87 81 70 68 79 79 70 69 57 32 19 14 7 5 6 5 5 5 4 4 4 4 4 5 7 11 18 29 45 60 72 80 79
12 12 12 13 12 11 12 12 14 17 15 11 9 13 20 27 34 44 51 53 55 60 66 72 80 88 95 100 100 100 101 100 100 101 97 92 96 101 100 99 100 100 98 96 96 95 88 91 101 92 59 31 19 14 11 8 7 9 9 5 4 4 3 4 4 5 9 15 26 40 55 66 73 75
12 12 12 13 12 11 11 11 13 17 16 12 9 10 17 22 27 37 46 48 51 58 63 66 71 78 84 93 100 102 99 97 99 100 98 96 99 101 100 100 99 95 94 100 102 94 87 92 103 104 86 54 28 21 19 14 12 12 10 7 5 5 5 4 3 5 9 17 30 46 59 67 71 73
12 12 13 13 12 12 11 11 12 15 15 13 10 9 13 18 22 29 36 40 45 53 57 59 64 69 73 80 92 101 100 95 95 99 100 100 100 99 99 101 100 94 92 98 101 98 94 88 84 89 90 68 41 28 23 20 19 15 14 15 11 6 6 6 7 9 13 23 41 58 67 71 71 72
12 13 13 14 13 12 11 11 11 13 14 14 12 9 10 13 17 22 27 31 38 45 50 53 58 64 66 70 81 96 102 99 97 99 100 100 100 99 99 100 101 99 97 98 100 100 100 94 85 82 76 62 48 41 35 35 37 35 35 37 35 31 26 19 18 22 24 32 45 57 65 70 71 73
12 13 14 14 14 13 12 11 11 12 13 14 13 12 11 12 13 16 20 24 30 37 43 49 55 60 62 65 75 90 100 101 100 100 100 100 100 100 100 99 99 100 100 99 99 100 100 98 98 97 88 78 76 73 66 66 69 65 57 52 52 56 54 43 37 38 40 45 51 57 64 71 74 76
12 13 14 15 15 14 13 13 11 11 12 13 14 15 14 14 13 13 15 19 23 28 34 42 50 56 58 61 68 80 93 100 101 99 100 100 100 100 100 99 95 94 99 101 99 99 99 96 98 102 98 95 100 98 90 88 91 90 82 71 64 60 57 53 50 49 53 60 64 67 70 72 73 76
13 13 15 16 16 15 15 15 13 13 13 14 15 16 16 16 16 14 14 15 17 20 24 31 41 49 55 60 62 67 81 95 101 101 99 100 101 99 100 102 94 85 90 101 102 100 99 96 96 98 94 90 94 95 90 87 88 90 90 89 87 82 76 72 68 66 70 76 76 74 74 72 70 71
14 14 15 16 16 16 17 18 17 16 16 16 17 18 18 18 17 16 16 14 15 16 17 21 32 41 48 55 58 61 69 83 94 101 101 99 101 100 99 103 96 76 69 80 91 94 95 91 87 86 86 84 80 77 74 75 78 83 86 86 88 90 90 87 84 83 85 85 80 75 72 70 69 68
14 14 16 17 16 17 19 20 21 21 21 21 22 22 21 21 19 18 16 14 14 15 14 16 23 30 36 46 53 56 61 69 81 94 100 100 101 100 99 102 101 87 73 71 74 73 70 68 70 73 80 89 87 74 64 63 65 72 82 89 89 87 84 83 84 85 84 84 85 84 81 76 72 69
15 15 17 17 17 18 20 22 24 25 25 26 27 27 27 27 26 23 20 17 15 15 15 15 17 20 26 36 45 50 55 60 68 80 93 99 101 101 99 100 101 99 94 91 88 79 67 64 69 70 74 89 98 88 74 66 60 59 69 84 94 94 86 81 84 86 86 88 92 94 92 86 80 75
15 15 17 18 17 18 21 23 25 26 28 29 30 31 31 31 31 30 27 23 20 17 16 15 15 15 18 24 32 39 46 53 58 65 77 90 97 100 101 100 100 100 100 99 100 98 92 89 91 86 81 88 99 99 93 85 74 67 71 82 93 99 96 91 91 94 96 97 95 92 90 89 87 86
15 15 16 18 18 18 20 23 24 26 28 29 30 32 32 32 33 33 33 31 28 23 20 18 16 15 15 16 19 26 34 42 50 56 63 74 86 95 100 101 100 100 101 100 99 100 100 100 100 99 96 95 95 96 99 98 88 79 82 91 98 100 100 99 99 99 100 101 97 91 88 88 91 95
15 16 16 18 18 18 20 23 24 25 27 29 30 30 31 31 32 34 34 35 34 30 27 24 21 18 16 14 14 17 22 28 37 46 53 60 70 81 92 98 101 100 100 100 100 100 100 100 100 100 100 101 98 94 97 101 97 89 88 94 100 101 100 100 100 100 100 100 97 93 90 89 91 96
15 16 17 18 19 19 20 23 25 25 27 28 29 29 30 29 30 32 33 34 35 34 32 30 26 23 21 18 15 14 15 18 23 32 40 48 55 64 74 86 95 100 101 100 100 100 100 100 101 100 99 100 101 99 99 101 101 98 95 94 96 99 101 100 100 101 101 100 97 94 92 90 90 93
15 16 17 18 19 18 19 22 24 25 26 27 28 29 28 27 27 29 29 30 32 34 34 33 31 28 25 23 21 17 15 14 15 19 24 31 39 48 57 67 78 89 96 100 101 101 100 100 100 101 101 100 100 100 100 100 100 100 100 98 97 99 100 100 100 100 99 97 96 94 93 92 92 93
15 16 16 18 19 18 19 21 23 24 25 26 27 27 27 26 26 25 25 26 28 30 31 32 33 32 29 27 26 23 20 17 15 14 15 18 23 30 38 47 58 69 80 91 97 100 101 101 100 100 100 100 100 100 100 100 100 100 100 100 100 100 100 100 100 100 97 96 94 92 92 93 95 97
16 16 16 18 19 19 19 21 22 24 25 25 26 26 26 26 27 25 23 24 25 26 27 29 30 31 31 31 29 27 25 23 19 17 15 14 15 18 22 30 40 50 60 71 82 91 97 100 101 101 100 100 100 100 100 100 100 100 100 100 100 100 100 100 100 100 99 99 97 94 92 93 95 95
16 16 16 17 19 19 20 21 22 23 24 24 26 26 26 26 27 26 25 25 25 24 24 25 26 27 30 31 31 30 29 27 24 22 20 17 15 14 15 18 24 30 37 47 58 69 80 88 95 100 101 100 100 100 100 100 100 100 100 100 100 100 100 100 100 100 100 100 100 98 96 95 94 93
16 16 16 17 18 19 20 21 22 23 24 24 25 26 26 26 27 27 26 26 25 24 24 23 23 24 25 27 29 31 31 29 28 26 25 22 19 17 16 15 15 16 19 25 33 43 55 67 77 87 94 98 100 100 100 100 100 100 100 100 100 100 100 100 100 100 100 100 100 99 98 97 96 96
16 17 16 17 18 19 19 21 22 23 24 24 25 26 26 26 26 26 26 26 26 26 25 23 22 22 22 22 24 26 28 30 30 29 28 26 24 22 20 19 17 15 14 14 17 23 31 42 53 65 76 86 94 98 100 100 100 100 100 100 100 100 100 100 100 100 100 100 100 100 99 99 99 99
Wind_Speed
42 41 39 38 36 32 28 26 26 28 30 31 33 34 35 38 39 38 34 30 28 26 27 27 24 21 21 20 20 21 23 23 26 29 31 34 38 41 44 46 47 47 47 47 47 46 47 48 49 48 49 51 54 53 54 59 63 71 79 79 70 56 49 56 62 61 63 67 71 71 71 73 70 68
42 40 38 37 35 32 28 26 26 28 30 31 32 33 34 35 37 40 39 35 32 31 31 30 28 25 22 22 22 21 22 23 25 27 29 32 35 39 42 45 47 48 47 47 47 47 46 48 49 49 48 49 51 52 52 56 61 68 77 81 76 62 52 55 61 66 65 62 67 73 72 73 75 73
40 39 38 36 34 32 28 26 26 27 29 30 31 32 33 35 36 38 40 39 35 34 33 29 28 28 26 24 24 23 23 24 26 28 29 30 33 37 41 44 46 48 48 47 48 47 47 48 49 49 49 48 49 51 51 54 57 63 72 81 80 68 56 55 60 68 71 63 61 71 74 72 74 76
39 38 37 35 34 31 28 26 25 27 28 30 31 32 33 35 36 37 39 40 37 35 35 33 31 31 30 27 26 26 25 25 27 29 30 31 33 36 39 42 46 48 48 48 48 48 47 47 49 50 49 48 48 50 51 52 55 60 67 77 81 74 63 56 58 67 75 70 61 62 70 73 73 75
38 37 35 34 33 31 28 25 25 26 28 30 31 32 33 34 36 37 38 40 39 36 37 38 36 33 32 30 27 26 26 25 27 29 31 32 33 35 38 41 44 47 48 49 48 48 47 47 48 50 50 49 48 49 50 51 53 57 63 73 80 79 71 61 58 62 71 74 65 56 60 68 69 71
37 36 34 33 33 31 28 25 25 26 28 29 30 31 33 34 35 37 38 39 40 40 39 39 38 35 32 30 27 26 25 25 26 28 29 31 33 34 36 39 43 45 48 49 49 49 48 47 48 49 50 50 48 48 50 50 51 54 60 68 76 81 78 68 60 60 64 70 68 55 54 60 58 59
36 35 34 33 33 32 28 25 25 26 27 29 30 31 33 34 35 36 38 39 41 43 42 40 38 35 30 27 26 25 25 24 24 26 27 29 31 32 34 37 41 44 46 49 50 50 49 48 48 49 50 50 49 49 49 49 50 52 56 63 72 80 82 75 65 60 59 64 67 58 51 52 49 48
35 34 33 33 33 32 29 26 24 26 27 28 30 32 33 34 35 36 37 37 40 43 43 40 36 32 28 26 25 25 25 23 23 24 25 27 29 31 32 35 38 42 45 48 50 51 50 49 48 48 49 50 50 49 49 49 49 50 54 59 68 78 83 81 72 62 58 58 61 60 52 48 48 48
34 33 33 32 32 32 30 27 25 25 27 28 30 32 33 34 35 36 36 37 39 41 41 38 33 29 28 27 26 26 27 26 24 24 24 26 28 29 31 32 35 39 43 46 50 51 51 49 48 48 49 50 50 50 49 49 48 48 51 55 63 73 80 83 78 67 60 55 54 55 52 47 47 50
33 33 33 32 31 31 30 27 25 25 26 28 29 31 32 34 36 37 37 38 39 38 37 36 33 29 28 28 26 24 26 28 25 24 25 25 27 29 30 31 32 36 41 45 48 51 52 51 49 49 49 49 50 50 49 49 48 47 48 51 58 67 75 81 82 74 66 59 52 51 51 46 43 48
32 32 32 31 30 30 30 27 24 24 26 28 29 30 33 35 36 37 38 38 37 36 35 34 33 30 28 27 26 24 25 27 26 25 25 25 26 29 30 31 31 33 38 42 47 50 52 51 50 49 49 49 50 51 50 50 49 47 46 48 53 61 68 75 81 80 73 67 59 51 49 46 40 44
32 31 31 30 29 29 29 27 24 23 25 28 30 31 33 35 37 38 39 38 36 35 34 33 32 30 27 25 25 25 26 27 27 26 27 26 24 27 29 31 31 31 35 40 44 48 51 52 51 50 49 49 49 51 51 50 49 47 46 46 49 55 62 67 75 81 79 74 69 59 50 46 41 41
30 30 30 30 29 29 29 27 24 23 24 27 30 31 33 35 37 39 39 38 35 34 32 31 30 28 25 24 25 25 26 27 27 27 28 27 25 26 27 28 30 31 33 37 42 46 50 52 52 50 50 49 49 50 51 51 50 48 46 45 46 50 55 60 68 76 80 80 77 68 57 49 43 41
29 29 29 29 29 28 28 26 23 22 23 25 27 29 32 34 37 40 39 36 34 33 31 30 30 28 23 22 24 25 24 25 27 26 27 27 26 27 27 25 26 31 33 36 41 45 48 52 53 51 50 49 48 49 51 50 49 48 46 44 44 46 49 54 61 68 74 79 80 75 66 56 48 43
29 28 28 28 28 28 27 26 23 21 21 23 25 27 29 31 34 37 38 37 34 32 30 28 29 28 23 21 21 23 24 24 26 27 28 29 28 30 31 27 23 27 33 37 41 45 47 51 53 52 50 49 49 49 49 49 48 48 47 45 44 45 46 49 54 60 66 73 77 77 73 65 56 49
29 28 28 28 28 28 27 26 23 19 19 21 23 25 26 27 30 31 34 35 33 32 30 27 27 27 24 22 22 24 27 27 26 26 28 29 29 31 33 31 25 24 30 37 41 45 47 50 52 52 50 49 48 48 47 48 49 48 47 46 45 45 46 47 50 55 60 66 71 75 75 72 66 58
28 28 28 27 27 27 27 26 24 20 18 19 20 22 23 25 27 28 29 30 30 31 30 26 26 28 27 25 25 27 29 29 27 25 24 25 28 30 32 33 28 25 29 35 41 45 46 48 52 52 50 49 48 47 47 47 48 48 47 46 46 45 46 47 48 51 55 59 66 71 73 74 72 66
28 28 27 27 27 27 27 26 24 21 19 18 19 20 21 23 26 26 27 27 28 30 31 30 29 31 31 29 28 30 31 30 30 27 23 22 26 30 32 32 28 24 27 33 39 45 45 46 52 52 49 48 48 47 47 47 47 48 47 46 46 46 46 47 48 49 52 54 59 65 69 72 72 70
27 27 27 27 27 26 26 26 25 22 19 19 19 20 21 23 25 27 27 27 27 29 33 35 36 36 36 35 34 35 35 35 34 29 23 21 23 26 27 26 22 20 25 31 38 44 43 43 50 52 47 47 48 46 46 46 46 47 47 46 46 46 46 46 47 48 51 52 54 59 64 68 70 71
26 27 27 27 27 26 26 26 25 23 20 20 20 20 20 22 24 25 25 27 28 29 32 36 38 40 40 39 37 36 36 37 36 28 22 20 19 18 16 15 15 17 23 31 39 42 40 42 49 50 46 46 47 46 46 46 45 46 46 46 46 46 46 46 46 47 49 51 52 54 59 64 66 68
25 26 27 27 27 26 26 26 26 24 21 19 20 20 20 22 23 23 22 22 25 28 31 33 35 38 39 38 36 35 35 36 34 24 16 15 14 13 11 8 11 16 23 30 37 38 37 40 46 48 45 45 45 45 45 44 44 45 45 46 46 45 45 45 45 46 47 49 52 53 55 59 63 64
25 25 26 27 27 26 26 26 26 25 22 20 20 20 20 21 22 22 21 19 20 23 28 30 31 34 36 36 34 33 33 35 31 19 12 13 11 9 9 6 7 16 22 26 30 31 31 37 43 43 42 43 43 43 44 43 44 44 44 45 46 45 45 45 44 44 45 47 49 52 54 56 59 62
24 25 26 27 27 26 26 25 26 26 25 23 21 21 21 21 21 22 22 21 20 23 26 28 28 30 33 33 32 30 30 34 29 17 12 12 9 5 6 5 5 14 19 19 20 24 27 33 38 38 39 40 41 41 42 42 43 43 43 44 45 44 44 44 43 43 43 45 47 49 53 55 57 60
22 24 25 26 26 26 25 25 25 26 26 25 22 21 22 22 21 20 21 22 23 24 27 28 28 29 30 31 31 29 28 31 28 18 12 10 8 6 5 2 5 13 18 18 20 24 27 30 31 32 35 37 37 40 40 40 41 43 42 43 44 44 44 43 43 43 42 43 45 47 50 54 56 58
21 22 23 25 25 25 25 24 24 25 24 24 22 21 21 21 21 20 20 21 23 25 27 28 27 27 27 27 28 28 27 28 28 21 14 10 9 8 7 7 9 13 17 19 20 22 24 26 25 25 30 33 34 36 39 38 39 41 41 42 43 43 44 43 43 42 42 42 44 46 48 51 54 56
20 21 22 23 24 24 23 23 23 23 22 21 20 18 19 19 19 19 19 20 23 25 25 26 26 26 25 24 25 26 25 26 27 23 15 10 10 8 6 8 7 11 14 16 16 18 21 22 20 18 23 29 32 33 35 36 37 37 38 41 42 43 43 43 43 42 42 42 43 44 46 49 51 53
20 20 21 22 23 23 23 22 22 20 20 19 17 16 16 17 18 18 19 20 22 23 24 25 26 25 25 24 24 25 25 25 26 24 17 12 11 7 3 4 5 10 13 12 14 17 18 17 16 17 20 24 28 30 32 33 34 34 36 38 41 42 43 43 42 41 41 41 42 43 44 46 48 50
18 19 20 20 22 22 22 21 20 19 19 18 16 14 14 15 16 18 18 19 21 21 22 24 25 25 25 25 26 25 25 25 26 25 21 16 14 10 5 3 4 8 11 13 15 16 15 14 15 18 19 21 25 28 29 30 31 32 34 35 37 39 41 41 40 40 39 40 41 42 43 44 46 48
18 19 19 19 20 21 20 19 18 18 18 18 17 15 14 15 16 17 18 18 19 20 21 22 23 24 25 26 26 25 22 21 22 24 23 19 13 10 9 6 4 3 4 8 10 13 16 18 16 16 16 17 20 22 24 27 29 30 32 33 33 34 35 37 37 37 37 39 40 41 42 42 43 44
17 18 18 18 18 19 18 18 18 17 18 19 19 18 17 17 17 17 17 18 18 19 21 22 22 23 23 24 25 24 21 17 16 18 22 20 15 10 7 5 4 4 3 2 5 9 16 19 16 14 16 16 15 17 19 23 26 28 29 30 31 31 32 33 34 34 34 36 39 40 41 41 41 42
15 16 16 16 16 16 16 16 18 19 21 22 22 22 21 20 19 18 18 18 19 19 20 21 21 22 22 22 22 22 21 17 14 14 16 18 17 11 5 2 3 3 1 3 4 7 13 15 13 14 17 18 17 17 19 21 23 25 27 28 29 31 31 31 32 33 33 34 37 39 40 41 42 42
13 14 15 14 14 15 16 18 20 22 23 24 24 24 24 23 22 21 19 19 19 19 19 20 20 20 20 20 20 20 20 18 15 14 14 15 16 14 8 2 1 1 2 4 5 6 9 11 10 11 14 17 18 18 19 21 22 24 26 27 28 29 30 31 31 32 33 34 36 38 40 41 42 42
12 13 13 13 14 15 17 19 21 22 22 23 23 23 23 24 23 22 21 19 18 18 18 18 17 18 18 18 18 18 18 17 15 14 13 12 13 13 10 5 3 2 2 5 8 8 9 10 9 9 11 14 17 19 20 21 22 23 25 27 29 30 31 32 32 32 33 35 36 37 40 41 43 43
10 11 11 12 13 15 16 17 19 19 19 20 21 21 22 23 23 23 22 21 20 20 20 18 17 17 17 17 17 16 16 16 16 15 13 11 10 11 11 10 8 6 3 5 7 9 10 10 10 11 13 14 15 18 21 22 23 23 24 26 29 30 31 32 33 33 34 35 35 36 38 41 42 43
9 10 10 11 12 14 15 15 16 16 17 18 19 19 20 21 22 22 23 23 23 23 22 21 20 19 17 16 16 16 16 16 17 16 14 12 9 9 10 11 11 10 7 5 5 7 9 11 12 13 14 15 15 16 19 21 23 23 23 24 27 29 30 31 32 32 33 34 35 36 38 39 41 43
8 9 9 10 11 12 13 13 14 15 16 16 17 18 19 20 21 21 22 23 23 23 23 24 23 21 20 18 17 17 16 16 15 15 14 12 11 10 9 9 10 11 10 7 5 6 8 10 12 13 14 14 14 16 17 18 21 23 22 22 25 28 29 30 29 30 31 32 34 36 37 38 39 40
7 8 9 9 9 11 11 12 13 14 15 16 16 17 18 19 20 21 22 22 22 22 23 23 24 23 22 21 19 17 16 15 15 14 14 13 12 10 9 8 8 9 10 9 8 7 6 7 9 12 16 16 16 16 17 18 19 21 21 20 22 25 27 28 29 29 30 31 33 35 36 37 38 38
7 7 7 8 8 9 10 10 12 13 14 15 16 17 18 19 20 20 21 21 21 21 21 22 23 23 23 22 21 19 17 16 15 13 12 12 11 9 8 8 7 7 8 9 9 8 7 5 4 8 14 18 19 19 20 19 19 21 22 21 21 23 25 27 29 30 31 32 33 34 35 37 38 38
7 6 6 7 7 8 9 9 11 13 14 15 17 18 18 19 19 19 20 20 20 20 20 20 21 22 22 22 22 21 19 17 15 13 12 11 11 10 9 8 7 6 6 6 7 8 8 5 3 5 9 14 17 19 20 20 20 20 21 22 22 22 23 25 27 29 30 32 33 33 34 35 37 38
7 6 6 6 6 7 8 9 10 12 13 14 16 17 18 18 19 19 19 19 20 20 20 20 20 20 20 21 21 21 21 19 18 17 15 14 12 11 10 8 7 6 5 4 4 5 7 6 5 6 8 10 13 15 16 18 19 20 20 22 22 22 23 24 25 27 29 30 31 32 33 34 36 37
7 6 6 6 5 6 7 8 9 11 12 13 15 16 17 18 18 18 18 19 20 20 20 20 19 19 19 20 20 20 20 20 19 18 17 16 15 13 11 9 8 6 4 3 2 2 4 6 6 8 8 9 11 12 11 11 15 18 19 20 21 21 22 24 25 26 27 29 30 31 32 34 35 37
7 7 7 7 6 5 6 8 8 10 11 12 14 15 16 17 18 18 19 19 20 20 20 20 19 19 19 19 19 19 19 19 19 18 18 17 16 14 12 10 7 5 4 2 1 1 2 4 5 7 7 8 10 11 9 8 10 13 15 17 18 19 21 22 23 24 25 27 28 30 32 33 34 36
8 7 7 7 6 6 6 7 8 9 11 12 13 14 15 17 18 18 19 19 19 19 20 20 20 19 19 18 18 19 18 18 18 18 18 17 16 15 14 13 11 9 7 6 4 2 0 1 3 5 6 6 8 9 9 9 9 10 12 13 14 16 18 19 20 21 21 22 24 26 29 31 32 34
8 8 7 7 7 6 7 7 7 8 10 12 13 14 15 15 17 17 18 18 18 19 19 19 19 20 19 19 18 18 18 18 18 18 18 18 17 17 16 15 14 13 11 10 8 5 3 3 3 4 5 6 7 8 9 10 10 10 11 11 11 12 14 15 16 17 18 19 20 21 23 26 29 31
9 8 8 7 7 7 7 8 8 8 9 11 12 14 14 15 15 16 17 18 18 18 18 19 19 19 19 19 18 18 18 18 18 17 17 17 17 17 16 15 14 13 12 11 9 8 7 5 5 5 6 7 8 9 9 10 11 11 11 11 11 11 11 12 12 13 15 16 18 19 20 22 24 25
Wind_Direction
333 333 332 329 328 326 322 321 321 323 326 329 330 329 328 328 330 332 330 333 339 335 328 328 325 318 312 306 300 293 286 276 267 260 254 248 244 242 241 240 239 237 233 232 229 226 225 225 224 224 224 225 226 227 227 227 230 231 228 225 222 219 214 209 207 209 209 209 210 208 207 206 205 208
332 332 332 330 328 325 320 318 320 325 328 328 327 326 327 330 332 332 329 328 333 331 326 324 322 316 308 301 295 289 287 283 276 268 260 253 248 243 241 240 239 238 234 232 230 227 225 224 224 224 223 224 225 225 225 226 228 229 228 225 223 219 212 206 206 208 208 207 207 207 207 207 207 208
331 332 332 330 328 324 319 318 321 325 326 326 325 326 329 331 333 331 326 324 327 329 326 324 322 317 310 301 294 286 281 278 275 272 267 259 253 247 243 240 239 238 235 233 231 229 226 224 224 223 223 223 223 224 224 224 226 228 228 226 223 219 213 206 205 207 207 204 202 204 205 207 209 209
331 331 332 330 327 323 319 317 319 323 325 325 325 327 330 332 331 329 325 322 324 329 329 327 325 320 313 304 296 288 280 273 269 269 268 264 259 251 245 241 239 238 236 233 232 230 227 224 224 223 222 222 222 223 223 223 224 226 227 226 224 220 216 208 204 206 208 207 204 200 201 205 208 210
331 331 332 329 326 324 320 317 317 321 324 324 325 327 328 331 330 328 326 324 324 330 331 327 324 321 313 306 299 291 281 273 266 264 264 264 263 256 249 243 239 238 237 234 232 231 229 225 224 223 222 221 221 222 223 223 223 225 226 227 225 221 218 213 204 203 207 211 209 200 197 202 206 209
331 331 331 328 327 326 323 318 316 319 323 323 325 326 328 331 331 328 325 325 326 328 329 326 324 322 316 308 304 296 287 277 268 263 261 262 262 260 254 247 241 238 236 235 232 231 230 227 224 223 222 221 220 221 223 223 223 224 225 227 226 223 220 217 208 202 204 208 209 203 195 197 201 206
331 331 330 327 328 329 325 319 316 318 322 324 324 326 328 330 329 326 323 322 324 325 327 329 328 325 320 313 307 302 294 285 274 266 261 260 260 261 258 251 245 240 236 235 233 230 229 228 225 223 222 221 220 220 221 222 223 223 224 226 226 224 222 220 213 203 200 202 206 205 197 194 196 200
331 330 330 329 330 329 327 321 317 318 322 324 325 326 328 329 328 326 323 322 324 327 329 332 330 325 320 316 311 305 300 292 282 273 265 261 260 259 258 254 248 243 238 235 233 230 228 228 226 223 221 220 220 219 220 221 222 223 223 225 226 225 224 223 218 208 200 198 201 203 200 196 198 198
331 329 330 331 330 329 329 324 318 318 321 324 326 326 327 328 327 325 326 328 329 330 329 329 329 326 321 319 316 310 302 295 286 278 271 267 264 260 258 255 251 246 240 236 233 230 228 227 226 223 221 220 219 218 219 220 221 222 222 224 225 226 226 225 221 212 205 200 198 199 197 196 197 198
329 330 332 332 330 328 329 325 319 319 321 323 325 326 327 327 326 328 333 334 330 327 325 326 328 325 320 318 317 311 302 297 291 282 274 269 267 265 260 256 252 247 242 237 233 231 228 226 225 223 220 219 218 217 217 219 220 221 222 223 225 226 228 227 224 217 211 208 205 200 196 193 192 194
330 332 333 332 329 328 329 326 321 320 322 323 326 329 329 328 329 333 334 332 326 322 323 327 327 321 315 313 312 307 302 299 298 292 283 274 269 267 265 260 254 248 243 238 234 231 228 225 224 224 221 218 217 217 216 217 219 220 221 222 224 227 229 229 226 222 218 215 214 209 200 194 192 193
331 333 334 332 329 328 329 328 324 323 325 327 329 331 330 328 330 332 331 328 323 320 322 328 327 319 313 309 304 302 300 298 298 295 290 285 277 270 267 263 258 252 244 239 234 231 229 226 223 223 221 218 216 216 216 216 216 218 219 220 223 226 228 229 228 226 223 221 220 218 210 200 196 197
333 334 335 333 330 329 330 329 326 326 327 328 330 330 328 328 329 330 328 325 321 318 322 329 329 322 313 306 301 298 298 296 294 291 288 288 285 277 270 263 260 256 248 240 234 230 228 225 222 221 221 217 215 215 215 215 215 216 217 218 220 225 228 228 229 229 228 226 224 223 218 208 203 204
334 335 335 334 331 329 330 329 326 325 326 327 328 327 327 328 328 325 323 321 319 319 324 333 334 329 321 312 305 302 301 294 289 287 286 285 285 281 275 264 256 255 251 242 234 228 226 225 221 219 219 217 214 213 214 214 215 215 216 216 217 222 226 226 227 230 230 230 229 227 223 215 209 208
335 336 337 335 333 330 330 329 327 325 325 326 326 325 325 325 323 321 320 320 321 323 328 337 340 336 332 326 318 313 309 300 292 287 285 285 283 279 275 267 252 247 249 243 233 226 224 223 220 217 217 217 214 212 212 213 214 214 215 215 215 218 221 222 224 228 231 231 232 230 227 222 216 211
336 337 338 337 334 332 330 330 328 324 323 324 325 323 323 321 318 318 318 318 322 327 331 339 345 343 340 339 335 328 319 311 304 293 286 285 281 274 273 271 258 242 243 242 234 224 221 221 219 215 214 216 214 211 210 211 212 213 213 213 214 215 218 219 221 225 229 231 231 231 230 227 223 218
336 337 338 339 337 333 331 331 330 325 323 324 323 320 319 319 319 318 317 317 324 330 333 340 349 349 346 344 341 333 324 320 319 307 293 284 277 270 270 271 264 248 240 239 234 224 217 217 217 214 212 214 214 210 209 209 211 212 212 212 213 214 217 219 219 222 227 230 231 231 231 230 229 225
336 337 338 340 339 335 332 332 330 325 323 322 321 319 320 323 322 320 319 321 326 332 337 345 351 350 348 345 340 336 332 331 331 322 304 287 275 271 270 268 264 251 237 236 233 223 213 213 215 212 210 212 212 210 208 209 209 211 212 212 212 213 216 218 219 221 224 227 229 231 231 231 231 230
336 337 339 340 340 337 333 334 332 326 322 322 323 324 327 329 325 322 324 327 331 337 344 349 350 348 347 344 342 342 341 340 340 331 312 295 283 278 276 268 259 244 228 228 229 219 209 210 212 209 207 210 211 209 208 208 208 210 211 212 212 213 215 217 219 220 222 224 227 229 231 232 232 232
335 337 339 341 341 338 335 335 334 329 323 322 324 327 332 330 324 323 329 333 336 344 352 352 348 344 343 341 341 342 341 342 343 335 318 309 304 301 294 271 251 232 218 219 223 216 206 205 207 206 206 208 209 209 208 207 207 209 210 211 212 213 215 217 218 220 221 223 224 226 229 231 232 232
336 337 339 341 341 339 336 336 336 332 324 321 323 329 334 329 322 323 330 336 341 348 354 354 347 341 339 339 340 341 340 344 345 337 325 321 322 325 321 282 234 217 211 213 217 212 202 201 203 203 204 206 207 208 207 206 207 208 209 211 212 212 214 216 218 220 222 223 222 223 225 228 231 231
337 339 339 340 340 339 338 338 338 335 329 325 325 329 332 327 321 323 326 333 347 356 357 354 348 342 339 339 341 341 341 346 348 344 331 327 326 328 328 306 223 207 206 209 211 204 195 195 199 200 201 203 206 207 206 205 206 207 208 210 211 213 213 215 217 219 221 223 223 222 222 224 227 229
339 340 340 340 339 339 339 339 339 338 335 330 327 329 329 325 323 324 324 330 350 1 0 356 350 345 343 342 343 343 342 348 353 353 344 346 358 3 340 319 215 195 192 191 187 180 180 188 193 195 197 200 203 205 205 205 205 206 207 209 210 212 213 214 216 218 220 223 224 223 222 222 224 226
341 342 341 340 339 339 339 339 341 341 336 330 327 326 326 324 325 328 329 337 351 360 359 355 352 349 347 346 347 346 346 352 359 3 3 7 23 31 19 36 162 166 163 161 156 155 166 180 184 189 194 198 201 203 204 205 206 206 207 208 209 212 213 213 215 217 219 221 223 223 223 223 223 224
343 344 341 340 340 340 340 341 343 341 334 328 325 323 322 325 330 334 337 345 355 358 356 354 353 351 351 351 351 349 350 357 4 14 25 24 14 24 61 116 150 153 145 139 138 145 160 168 170 179 191 194 197 202 203 205 206 207 207 208 208 211 213 213 214 216 218 220 222 222 223 224 224 224
345 345 343 341 341 341 343 344 344 340 333 328 324 322 321 326 334 341 344 351 357 356 353 353 354 353 353 356 357 355 356 2 9 20 32 23 8 26 87 126 148 160 151 136 132 144 157 159 158 173 191 194 195 199 202 205 206 206 207 208 208 209 212 213 213 215 217 220 221 222 223 224 225 225
347 347 345 343 343 345 348 349 343 337 335 333 328 325 324 327 337 346 351 355 356 354 352 352 354 354 355 360 5 3 0 3 11 21 26 13 4 18 88 115 116 149 156 139 130 144 154 160 166 178 191 196 196 197 200 203 204 205 206 207 207 208 210 211 212 213 216 219 221 221 222 223 224 224
347 347 347 346 347 351 354 352 344 339 341 343 340 334 331 333 341 350 354 356 355 353 352 352 353 355 357 1 7 10 8 5 8 15 22 18 9 12 26 52 98 139 152 146 142 149 160 170 174 178 187 196 199 198 197 199 200 202 204 206 207 207 208 210 211 213 214 217 219 220 221 222 223 224
347 347 348 350 353 356 357 357 353 349 350 352 352 350 346 345 349 352 354 355 355 353 354 354 354 356 359 2 6 11 14 13 9 11 18 20 12 9 17 24 41 78 144 166 169 178 188 189 184 181 183 188 194 194 192 191 193 196 199 203 205 206 207 209 210 212 214 216 218 219 221 222 223 224
348 347 349 354 358 358 1 5 5 4 4 4 4 4 0 357 356 355 353 354 356 356 355 355 355 358 1 4 6 9 12 18 21 19 19 18 15 12 15 14 11 18 31 146 161 174 186 189 188 186 182 181 188 192 188 184 186 191 196 200 202 204 206 207 209 211 213 215 217 219 220 221 222 223
347 346 349 356 359 357 1 12 17 18 19 18 16 15 11 6 3 359 356 356 357 357 357 356 356 359 2 3 5 8 11 16 28 35 30 23 18 18 24 6 319 322 39 125 125 144 167 175 173 174 179 186 196 203 199 191 187 191 196 199 201 204 206 207 208 210 211 213 215 217 219 220 221 222
344 346 348 354 356 356 5 17 23 26 26 26 24 23 19 16 12 8 3 359 357 357 358 358 357 359 2 2 3 7 11 15 25 38 42 36 28 25 31 50 269 260 171 163 155 149 162 171 168 168 180 191 198 203 203 199 195 196 199 200 201 204 207 209 211 212 213 214 214 215 216 219 221 223
342 346 345 349 355 1 12 22 27 29 29 29 29 27 24 23 22 19 14 8 3 2 2 0 360 0 2 4 5 7 9 14 23 35 43 46 41 35 40 71 118 135 181 188 182 176 178 184 187 191 197 201 205 207 207 203 201 201 203 205 205 204 205 207 211 214 216 218 218 217 216 217 219 221
339 345 342 345 357 7 17 24 28 29 28 28 28 27 26 25 25 24 22 19 17 14 9 7 8 7 4 6 8 9 10 13 19 29 39 47 51 47 49 68 97 117 160 201 200 200 204 208 213 214 207 205 211 215 215 211 208 206 207 208 209 209 208 207 209 213 216 218 220 221 220 219 218 219
336 342 338 344 360 11 17 22 25 24 22 23 23 22 23 23 22 23 24 24 24 21 17 15 16 15 11 9 10 11 13 14 16 21 29 39 52 60 58 64 82 103 127 167 200 210 212 219 229 222 204 199 210 216 217 217 217 214 213 212 211 213 214 213 212 214 216 219 222 224 224 221 219 218
329 336 334 341 359 11 15 18 20 19 17 17 17 17 18 19 19 19 21 23 24 24 21 19 20 20 19 17 14 12 14 15 16 16 20 29 43 55 60 62 72 87 105 129 152 169 182 200 217 217 205 203 211 212 212 216 220 221 219 215 213 214 217 218 218 218 219 222 225 227 227 226 223 221
319 329 330 336 354 7 11 13 15 15 13 13 13 13 14 15 16 17 18 19 20 21 21 20 20 22 23 22 20 17 15 16 15 14 15 21 30 39 50 61 71 81 92 102 108 114 132 161 186 197 200 203 208 211 213 216 220 222 221 217 215 215 217 219 222 223 223 223 225 228 230 230 229 226
304 318 326 330 345 360 6 10 11 11 10 10 10 11 12 13 15 16 17 17 17 18 20 19 18 20 23 24 24 23 21 19 18 16 15 18 22 28 40 55 69 83 91 97 101 99 94 99 140 174 186 191 196 204 213 216 218 220 219 217 219 221 220 220 223 224 226 226 226 227 229 230 231 230
290 305 317 321 334 351 359 4 8 9 8 7 8 9 10 11 13 14 16 17 17 18 19 19 18 17 19 21 23 24 24 22 21 20 21 22 22 23 28 37 52 73 88 99 109 110 106 103 113 147 168 178 184 192 204 212 216 219 219 219 223 226 225 224 225 226 227 228 228 228 229 230 231 232
278 292 304 311 326 343 350 356 4 6 6 6 7 8 8 9 12 12 14 17 18 18 18 19 19 18 17 18 20 21 23 24 23 23 23 24 24 24 23 24 31 44 64 85 108 123 128 132 140 143 149 160 167 173 188 203 212 217 220 221 225 228 228 228 229 228 228 228 229 230 231 231 231 231
268 281 292 301 317 335 343 348 356 1 2 4 5 5 6 8 10 10 12 15 17 16 16 18 19 19 18 18 18 18 21 23 25 26 25 24 24 23 21 18 18 19 28 52 85 127 142 148 154 149 142 144 149 149 157 182 198 207 213 217 220 223 225 226 229 230 231 231 231 232 233 234 233 232
257 270 282 293 306 325 336 342 349 354 357 360 2 3 5 7 7 7 10 13 14 14 14 14 15 18 20 19 17 17 17 19 22 25 26 26 25 24 20 16 14 13 15 24 39 126 154 161 167 162 153 150 148 141 137 153 174 186 197 205 209 212 216 220 224 227 228 230 232 234 235 236 236 235
248 260 274 284 296 312 325 334 343 348 351 353 357 359 2 4 4 5 8 10 10 12 13 12 11 14 17 18 18 18 16 15 17 19 21 22 23 23 21 20 19 17 14 12 12 13 330 213 201 188 178 171 165 159 159 161 161 163 173 185 194 200 205 210 214 217 220 223 227 231 234 236 236 235
243 250 264 275 286 301 315 324 334 343 346 348 351 354 357 1 2 2 3 5 7 8 10 10 10 11 12 14 16 17 15 15 16 16 16 16 18 18 19 20 21 19 15 9 2 352 327 284 253 233 217 203 194 189 186 184 178 169 165 167 174 185 194 199 204 208 212 215 219 224 230 233 234 234
241 245 257 268 277 291 306 316 324 335 342 344 346 349 351 355 358 359 359 360 2 4 5 7 8 9 9 9 11 13 13 13 14 14 13 12 13 13 13 13 13 14 13 8 1 348 333 312 285 263 247 232 222 215 209 205 200 193 184 175 170 172 178 185 192 199 204 209 214 219 225 230 233 233